Wind_Speed
27 32 35 38 36 41 43 42 40 42 45 41 38 36 28 24 29 27 28 26 21 18 17 14 11 10 12 12 11 11 12 12 12
17 24 30 34 38 36 41 42 43 44 47 45 41 37 31 26 27 28 29 28 24 21 19 16 15 15 11 11 11 9 10 12 11
18 17 25 34 34 36 37 41 42 40 47 47 43 40 34 30 26 29 27 29 28 26 21 19 17 17 16 13 14 12 10 10 12
28 13 22 30 35 32 33 36 40 42 46 49 47 44 40 35 30 28 29 31 31 28 23 21 19 17 16 16 15 14 13 10 11
31 17 7 18 26 28 25 32 38 41 45 48 48 46 43 38 33 30 30 32 33 32 29 25 20 20 18 18 17 17 18 16 14
32 28 21 10 6 18 20 25 31 34 36 42 45 47 46 44 40 35 33 32 33 33 32 30 27 24 23 21 20 19 18 18 19
28 27 23 22 16 11 7 15 17 24 28 32 38 41 43 44 44 42 37 34 32 33 34 34 33 31 27 26 24 23 22 20 20
27 31 29 23 19 15 8 6 9 16 18 21 27 36 38 40 41 42 43 42 38 34 33 36 37 36 34 32 30 28 26 24 22
25 25 27 26 22 18 14 6 3 8 14 22 25 28 30 29 33 39 40 42 42 40 38 35 37 40 39 39 39 36 31 28 26
21 22 23 24 24 21 18 15 7 7 13 16 22 26 27 30 31 33 33 35 39 41 40 39 38 36 39 42 42 41 39 36 34
19 21 21 21 21 21 18 15 14 11 6 13 18 22 29 30 28 29 28 28 33 36 37 39 40 39 37 37 40 43 44 42 41
19 19 18 18 19 18 19 17 14 14 11 7 11 19 22 25 29 34 34 32 31 32 32 33 33 37 37 37 38 38 39 42 46
21 18 18 20 19 18 17 17 15 11 10 8 5 6 11 16 24 31 33 31 31 31 29 29 28 30 31 31 31 33 35 38 40
25 24 21 19 21 21 20 18 17 14 10 8 9 5 4 6 17 22 26 28 30 28 28 25 25 27 28 29 29 28 29 31 36
33 29 26 23 22 24 22 18 19 17 15 14 8 8 5 3 7 16 21 20 19 22 26 27 28 30 30 28 27 29 30 30 31
34 35 30 26 28 25 25 22 20 23 19 17 18 12 11 8 7 8 11 18 28 30 28 32 32 35 32 31 28 27 28 28 30
38 36 35 31 31 32 29 27 25 24 24 23 20 20 18 16 18 17 14 15 19 24 24 29 34 35 35 30 30 27 27 26 26
37 37 35 34 33 35 35 29 28 25 27 27 25 23 21 21 20 22 21 20 19 20 27 25 33 37 34 27 29 30 29 25 21
32 35 36 36 36 34 37 32 28 27 27 27 27 27 26 24 23 23 25 28 28 23 25 32 30 33 35 30 26 24 26 27 21
24 25 27 28 34 31 33 34 30 28 28 26 27 28 28 29 27 27 23 25 26 30 28 25 33 28 28 30 27 25 27 29 28
Wind_Direction
218 212 211 213 217 220 216 221 224 221 218 217 218 218 219 222 220 228 227 227 229 223 224 229 234 238 238 235 229 236 238 241 244
235 222 214 210 215 221 223 224 227 226 222 221 221 221 221 225 225 230 227 225 228 222 223 228 236 245 250 239 240 242 241 246 252
333 250 217 212 213 220 227 229 231 232 227 226 225 223 225 226 230 228 230 225 224 223 227 230 234 244 248 249 245 245 253 252 249
352 274 237 227 222 224 230 233 233 235 230 228 229 229 227 229 230 231 231 227 225 227 227 229 238 235 243 243 242 249 252 257 259
21 37 239 224 219 220 230 229 230 233 233 232 232 234 232 234 234 235 232 231 231 231 232 231 235 236 238 238 242 247 256 259 264
31 52 66 87 189 219 227 225 226 233 237 238 238 237 237 236 237 239 237 236 235 234 234 233 234 237 239 237 239 248 257 262 257
35 47 54 64 76 90 157 213 218 229 238 242 243 244 242 242 242 242 243 242 240 240 238 237 236 237 241 242 244 249 254 262 260
30 34 41 43 47 53 68 162 202 226 236 249 248 243 245 248 249 248 247 246 245 243 243 242 241 240 242 245 246 248 251 255 258
18 21 28 32 30 35 37 41 221 216 219 225 240 243 243 246 247 250 252 252 250 250 247 246 244 242 243 244 247 250 252 254 256
17 13 17 23 21 17 16 19 358 284 248 228 226 233 244 242 244 248 249 255 254 252 251 249 247 246 244 245 247 250 251 253 256
8 358 358 3 7 7 4 5 17 17 309 255 230 229 235 242 241 241 246 250 256 255 252 251 251 249 249 248 248 250 251 252 253
355 346 342 342 346 352 353 352 356 8 10 349 259 241 239 235 241 245 243 244 252 254 254 254 252 254 252 251 252 251 252 252 251
324 330 331 328 330 330 337 342 339 346 6 348 307 246 232 233 233 238 246 248 249 249 251 253 256 255 254 254 254 255 254 253 254
310 313 316 316 314 314 319 325 327 326 320 326 354 328 261 246 237 232 236 243 252 258 256 250 253 256 254 253 255 255 256 255 253
304 303 305 304 302 300 304 309 310 312 312 298 304 329 350 277 261 247 243 246 241 241 249 256 258 262 262 254 253 254 254 256 256
293 299 296 296 301 293 289 293 298 297 301 301 297 277 290 302 316 332 281 257 242 248 257 250 255 259 264 262 257 257 256 256 257
293 292 293 291 291 291 283 282 284 289 293 298 299 295 286 289 286 283 289 308 282 259 255 253 256 258 260 265 263 261 259 258 260
294 292 290 293 288 280 283 282 278 281 285 293 298 299 298 291 293 288 289 286 296 288 267 254 257 257 262 268 269 266 268 265 262
288 289 293 292 285 276 273 281 277 277 277 285 292 296 300 300 289 292 290 290 292 291 282 264 254 254 257 264 267 276 275 271 274
303 294 291 291 291 279 272 276 271 275 277 279 284 291 296 297 295 293 287 285 282 282 282 274 255 250 249 257 263 268 270 272 271
Height
1495 1501 1507 1515 1520 1524 1529 1534 1540 1545 1550 1555 1561 1566 1569 1572 1576 1579 1583 1587 1590 1593 1595 1598 1600 1602 1604 1607 1609 1610 1612 1613 1615
1496 1500 1504 1509 1514 1520 1525 1530 1535 1540 1545 1551 1556 1561 1566 1569 1572 1575 1578 1583 1587 1590 1593 1595 1598 1601 1603 1605 1607 1608 1609 1611 1613
1500 1497 1500 1504 1510 1515 1520 1526 1531 1535 1541 1546 1550 1556 1561 1565 1568 1572 1575 1580 1582 1586 1590 1593 1595 1598 1600 1603 1604 1606 1608 1609 1610
1498 1492 1497 1502 1508 1512 1517 1523 1528 1532 1537 1542 1547 1553 1558 1562 1565 1568 1572 1575 1579 1582 1586 1589 1592 1594 1597 1600 1602 1603 1605 1607 1607
1500 1494 1498 1502 1507 1511 1516 1519 1523 1527 1532 1537 1542 1546 1552 1557 1561 1565 1568 1571 1575 1579 1582 1585 1588 1590 1593 1596 1598 1600 1602 1603 1605
1509 1504 1503 1504 1508 1511 1515 1517 1521 1524 1528 1532 1537 1541 1546 1551 1555 1559 1562 1566 1569 1573 1576 1580 1583 1586 1588 1591 1594 1596 1598 1599 1601
1518 1514 1513 1511 1511 1511 1513 1516 1519 1522 1526 1529 1533 1537 1540 1544 1548 1552 1557 1560 1563 1567 1570 1573 1576 1580 1583 1586 1589 1591 1594 1596 1597
1522 1520 1518 1517 1516 1516 1516 1516 1517 1519 1522 1524 1527 1530 1533 1536 1541 1545 1550 1553 1556 1560 1563 1566 1570 1573 1576 1580 1582 1585 1587 1590 1592
1527 1526 1524 1521 1520 1518 1517 1517 1517 1517 1517 1518 1521 1522 1524 1529 1532 1536 1541 1545 1549 1552 1556 1559 1562 1565 1568 1571 1574 1577 1581 1583 1585
1532 1529 1526 1524 1522 1520 1519 1517 1516 1515 1514 1514 1514 1517 1520 1523 1526 1528 1531 1536 1540 1543 1546 1550 1553 1556 1558 1561 1565 1568 1573 1576 1578
1532 1530 1527 1525 1523 1522 1520 1518 1515 1513 1511 1511 1510 1512 1513 1516 1519 1521 1524 1528 1530 1534 1537 1540 1544 1546 1550 1552 1554 1559 1563 1567 1569
1534 1531 1529 1527 1525 1522 1520 1517 1516 1512 1508 1503 1506 1510 1510 1510 1512 1515 1518 1519 1523 1526 1529 1532 1534 1537 1539 1541 1544 1548 1552 1556 1558
1533 1532 1529 1525 1523 1522 1519 1517 1516 1514 1513 1513 1511 1508 1507 1506 1505 1508 1510 1512 1516 1520 1522 1524 1526 1528 1530 1531 1533 1537 1540 1544 1547
1529 1528 1527 1525 1522 1519 1518 1516 1514 1513 1512 1511 1509 1506 1503 1501 1503 1505 1505 1507 1510 1512 1515 1518 1518 1519 1521 1521 1524 1527 1530 1534 1536
1522 1521 1520 1521 1519 1516 1515 1514 1512 1510 1509 1506 1504 1503 1502 1501 1502 1501 1502 1503 1504 1506 1508 1509 1510 1511 1511 1511 1513 1517 1519 1523 1526
1518 1515 1514 1514 1513 1512 1510 1509 1508 1506 1505 1503 1499 1498 1499 1498 1498 1496 1496 1497 1498 1498 1500 1500 1500 1501 1501 1501 1502 1506 1510 1513 1517
1511 1510 1508 1507 1505 1503 1503 1503 1503 1501 1500 1497 1495 1491 1488 1491 1493 1491 1491 1492 1492 1490 1489 1490 1491 1492 1492 1492 1494 1496 1500 1503 1506
1507 1503 1502 1501 1498 1495 1494 1497 1495 1495 1493 1490 1488 1486 1484 1484 1481 1483 1483 1484 1485 1479 1480 1483 1484 1483 1485 1484 1484 1486 1492 1495 1497
1502 1498 1495 1493 1491 1489 1486 1488 1489 1490 1488 1484 1481 1479 1476 1475 1475 1476 1468 1475 1467 1474 1477 1476 1475 1475 1475 1475 1476 1478 1482 1486 1488
1494 1492 1490 1486 1482 1481 1481 1480 1481 1481 1480 1477 1475 1473 1473 1470 1467 1472 1471 1470 1468 1469 1468 1467 1467 1465 1463 1465 1467 1470 1474 1478 1483